This demonstration page uses our WeatherBlox Daily Observations layout. Learn more.

Hourly Observations for January 22, 2019

Temp ( °F °C ) Dew Point ( °F °C ) Humidity (%) Winds ( mph kmh ) Pressure ( in mb ) Visibility ( mi km ) Precip ( " mm )
12:15 am 00:15 Clear 16 -9 5 -15 62 62 NNW 9 15 30.62 1037 10 16.09344 0 0
12:35 am 00:35 Clear 16 -9 5 -15 62 62 NNW 8 13 30.62 1037 10 16.09344 0 0
12:55 am 00:55 Clear 16 -9 5 -15 62 62 NNW 9 15 30.62 1037 10 16.09344 0 0
1:15 am 01:15 Clear 16 -9 5 -15 62 62 WNW 8 13 30.65 1038 10 16.09344 0 0
1:35 am 01:35 Clear 14 -10 5 -15 67 67 NW 6 9 30.65 1038 10 16.09344 0 0
1:55 am 01:55 Clear 14 -10 5 -15 67 67 WNW 7 11 30.68 1039 10 16.09344 0 0
2:15 am 02:15 Clear 16 -9 5 -15 62 62 NNW 7 11 30.68 1039 10 16.09344 0 0
2:35 am 02:35 Clear 16 -9 5 -15 62 62 NNW 8 13 30.68 1039 10 16.09344 0 0
2:55 am 02:55 Clear 16 -9 5 -15 62 62 N 12 19 30.65 1038 10 16.09344 0 0
3:15 am 03:15 Clear 16 -9 5 -15 62 62 N 8 13 30.68 1039 10 16.09344 0 0
3:35 am 03:35 Clear 16 -9 5 -15 62 62 N 5 7 30.68 1039 10 16.09344 0 0
3:55 am 03:55 Clear 14 -10 5 -15 67 67 NNW 7 11 30.68 1039 10 16.09344 0 0
4:15 am 04:15 Clear 14 -10 7 -14 73 73 WNW 6 9 30.68 1039 10 16.09344 0 0
4:35 am 04:35 Clear 14 -10 7 -14 73 73 WNW 5 7 30.71 1040 10 16.09344 0 0
4:55 am 04:55 Clear 14 -10 5 -15 67 67 Calm 30.71 1040 10 16.09344 0 0
5:15 am 05:15 Clear 14 -10 7 -14 73 73 NW 6 9 30.71 1040 10 16.09344 0 0
5:35 am 05:35 Clear 14 -10 7 -14 73 73 NNW 3 6 30.71 1040 10 16.09344 0 0
5:55 am 05:55 Clear 14 -10 7 -14 73 73 NNW 6 9 30.71 1040 10 16.09344 0 0
6:15 am 06:15 Clear 16 -9 5 -15 62 62 N 6 9 30.71 1040 10 16.09344 0 0
6:35 am 06:35 Clear 16 -9 7 -14 67 67 N 5 7 30.71 1040 10 16.09344 0 0
6:55 am 06:55 Clear 14 -10 7 -14 73 73 Calm 30.71 1040 10 16.09344 0 0
7:15 am 07:15 Clear 14 -10 7 -14 73 73 Calm 30.71 1040 10 16.09344 0 0
7:35 am 07:35 Sunny 14 -10 7 -14 73 73 NW 6 9 30.74 1041 10 16.09344 0 0
7:55 am 07:55 Sunny 16 -9 7 -14 67 67 NNW 5 7 30.74 1041 10 16.09344 0 0
8:15 am 08:15 Sunny 18 -8 7 -14 62 62 N 5 7 30.74 1041 10 16.09344 0 0
8:35 am 08:35 Sunny 18 -8 9 -13 68 68 NW 7 11 30.77 1042 10 16.09344 0 0
8:55 am 08:55 Sunny 19 -7 9 -13 63 63 NNW 5 7 30.77 1042 10 16.09344 0 0
9:15 am 09:15 Sunny 21 -6 9 -13 58 58 NNW 6 9 30.77 1042 10 16.09344 0 0
9:35 am 09:35 Sunny 21 -6 9 -13 58 58 NNW 5 7 30.77 1042 10 16.09344 0 0
9:55 am 09:55 Sunny 21 -6 9 -13 58 58 NNW 3 6 30.77 1042 10 16.09344 0 0
10:15 am 10:15 Sunny 23 -5 9 -13 54 54 Calm 30.77 1042 10 16.09344 0 0
10:35 am 10:35 Sunny 25 -4 9 -13 50 50 Calm 30.77 1042 10 16.09344 0 0
10:55 am 10:55 Sunny 27 -3 9 -13 46 46 Calm 30.77 1042 10 16.09344 0 0
11:15 am 11:15 Sunny 27 -3 9 -13 46 46 Calm 30.77 1042 10 16.09344 0 0
11:35 am 11:35 Sunny 27 -3 7 -14 43 43 Calm 30.74 1041 10 16.09344 0 0
11:55 am 11:55 Sunny 28 -2 7 -14 40 40 Calm 30.71 1040 10 16.09344 0 0
12:15 pm 12:15 Sunny 28 -2 7 -14 40 40 Calm 30.71 1040 10 16.09344 0 0
12:35 pm 12:35 Sunny 28 -2 9 -13 43 43 S 6 9 30.68 1039 10 16.09344 0 0
12:55 pm 12:55 Sunny 30 -1 9 -13 40 40 SW 6 9 30.68 1039 10 16.09344 0 0
1:15 pm 13:15 Sunny 30 -1 9 -13 40 40 Calm 30.65 1038 10 16.09344 0 0
1:35 pm 13:35 Sunny 32 0 9 -13 37 37 S 6 9 30.65 1038 10 16.09344 0 0
1:55 pm 13:55 Sunny 32 0 9 -13 37 37 S 8 13 30.65 1038 10 16.09344 0 0
2:15 pm 14:15 Sunny 32 0 9 -13 37 37 S 8 13 30.62 1037 10 16.09344 0 0
2:35 pm 14:35 Sunny 32 0 10 -12 40 40 S 9 15 30.62 1037 10 16.09344 0 0
2:55 pm 14:55 Sunny 32 0 10 -12 40 40 S 9 15 30.62 1037 10 16.09344 0 0
3:15 pm 15:15 Sunny 32 0 9 -13 37 37 S 13 20 30.62 1037 10 16.09344 0 0
3:35 pm 15:35 Sunny 32 0 9 -13 37 37 S 9 15 30.62 1037 10 16.09344 0 0
3:55 pm 15:55 Sunny 32 0 9 -13 37 37 S 8 13 30.62 1037 10 16.09344 0 0
4:15 pm 16:15 Sunny 32 0 10 -12 40 40 S 9 15 30.59 1036 10 16.09344 0 0
4:35 pm 16:35 Sunny 32 0 10 -12 40 40 S 9 15 30.59 1036 10 16.09344 0 0
4:55 pm 16:55 Sunny 32 0 10 -12 40 40 S 8 13 30.59 1036 10 16.09344 0 0
5:15 pm 17:15 Sunny 32 0 10 -12 40 40 S 9 15 30.59 1036 10 16.09344 0 0
5:35 pm 17:35 Clear 32 0 10 -12 40 40 S 8 13 30.59 1036 10 16.09344 0 0
5:55 pm 17:55 Clear 32 0 10 -12 40 40 S 9 15 30.59 1036 10 16.09344 0 0
6:15 pm 18:15 Clear 32 0 10 -12 40 40 SSE 6 9 30.59 1036 10 16.09344 0 0
6:35 pm 18:35 Clear 32 0 10 -12 40 40 S 9 15 30.59 1036 10 16.09344 0 0
6:55 pm 18:55 Clear 32 0 10 -12 40 40 S 7 11 30.59 1036 10 16.09344 0 0
7:15 pm 19:15 Clear 32 0 10 -12 40 40 S 9 15 30.59 1036 10 16.09344 0 0
7:35 pm 19:35 Clear 32 0 12 -11 44 44 S 8 13 30.56 1035 10 16.09344 0 0
7:55 pm 19:55 Clear 32 0 12 -11 44 44 S 10 17 30.56 1035 10 16.09344 0 0
8:15 pm 20:15 Clear 30 -1 12 -11 47 47 S 8 13 30.56 1035 10 16.09344 0 0
8:35 pm 20:35 Clear 30 -1 12 -11 47 47 S 6 9 30.56 1035 10 16.09344 0 0
8:55 pm 20:55 Clear 30 -1 14 -10 51 51 S 8 13 30.56 1035 10 16.09344 0 0
9:15 pm 21:15 Clear 30 -1 14 -10 51 51 S 9 15 30.53 1034 10 16.09344 0 0
9:35 pm 21:35 Clear 30 -1 14 -10 51 51 SSW 6 9 30.56 1035 10 16.09344 0 0
9:55 pm 21:55 Clear 30 -1 14 -10 51 51 S 6 9 30.53 1034 10 16.09344 0 0
10:15 pm 22:15 Clear 30 -1 14 -10 51 51 S 8 13 30.53 1034 10 16.09344 0 0
10:35 pm 22:35 Clear 30 -1 14 -10 51 51 S 5 7 30.53 1034 10 16.09344 0 0
10:55 pm 22:55 Clear 30 -1 16 -9 55 55 SSE 8 13 30.53 1034 10 16.09344 0 0
11:15 pm 23:15 Clear 30 -1 16 -9 55 55 S 5 7 30.53 1034 10 16.09344 0 0
11:35 pm 23:35 Clear 30 -1 16 -9 55 55 SSW 3 6 30.53 1034 10 16.09344 0 0
11:55 pm 23:55 Clear 30 -1 16 -9 55 55 S 3 6 30.53 1034 10 16.09344 0 0

Powered by AerisWeather